This is the latest recevied weather packets stored in our database for station/object KC1TEM-13. If no packets are shown the sender has not sent any weather packets the latest 10 day(s).
| Time | Temp. | Humidity | Pressure | Rain* | Wind** | Luminosity | Snow |
|---|---|---|---|---|---|---|---|
| 1777686246 | 7.22° C | 70% | 1011.7 hPa | 0 mm | - | 0 W/m² | - |
| 1777685943 | 7.22° C | 67% | 1011.7 hPa | 0 mm | - | 0 W/m² | - |
| 1777685638 | 7.78° C | 66% | 1011.7 hPa | 0 mm | - | 0 W/m² | - |
| 1777685335 | 7.78° C | 66% | 1012 hPa | 0 mm | - | 0 W/m² | - |
| 1777685033 | 7.78° C | 62% | 1011.9 hPa | 0 mm | - | 0 W/m² | - |
| 1777684730 | 8.33° C | 60% | 1011.7 hPa | 0 mm | - | 0 W/m² | - |
| 1777684426 | 8.33° C | 58% | 1011.8 hPa | 0 mm | - | 0 W/m² | - |
| 1777684123 | 8.33° C | 58% | 1011.6 hPa | 0 mm | - | 0 W/m² | - |
| 1777683820 | 8.89° C | 57% | 1011.7 hPa | 0 mm | - | 0 W/m² | - |
| 1777683517 | 8.89° C | 57% | 1011.6 hPa | 0 mm | - | 0 W/m² | - |
| 1777683215 | 9.44° C | 59% | 1011.4 hPa | 0 mm | - | 0 W/m² | - |
| 1777682912 | 9.44° C | 55% | 1011.4 hPa | 0 mm | - | 0 W/m² | - |
| 1777682608 | 9.44° C | 57% | 1011.3 hPa | 0 mm | - | 0 W/m² | - |
| 1777682306 | 10° C | 52% | 1011.3 hPa | 0 mm | - | 0 W/m² | - |
| 1777682003 | 10° C | 51% | 1011.4 hPa | 0 mm | - | 0 W/m² | - |
| 1777681699 | 10.56° C | 51% | 1011.3 hPa | 0 mm | - | 0 W/m² | - |
| 1777681396 | 10.56° C | 49% | 1011 hPa | 0 mm | - | 0 W/m² | - |
| 1777681094 | 11.11° C | 46% | 1011 hPa | 0 mm | - | 0 W/m² | - |
| 1777680791 | 11.11° C | 44% | 1010.9 hPa | 0 mm | - | 0 W/m² | - |
| 1777680489 | 11.67° C | 45% | 1010.7 hPa | 0 mm | - | 0 W/m² | - |
| 1777680187 | 11.67° C | 48% | 1010.7 hPa | 0 mm | - | 0 W/m² | - |
| 1777679882 | 12.22° C | 42% | 1010.8 hPa | 0 mm | - | 0 W/m² | - |
| 1777679578 | 12.22° C | 38% | 1010.5 hPa | 0 mm | - | 1 W/m² | - |
| 1777679274 | 12.78° C | 36% | 1010.5 hPa | 0 mm | - | 2 W/m² | - |
| 1777678971 | 12.78° C | 35% | 1010.4 hPa | 0 mm | - | 3 W/m² | - |
* Rain latest hour (hover to see other rain measurements)
** Current wind speed in m/s (hover to see current wind gust speed)